Temp
-2 -1 -1 -1 -1 -1 -1 -1 -1 -2 -2 -2 -3 -3 -3 -3 -3 -4 -4 -4 -4 -5 -5 -5 -5 -5 -5 -5 -5 -5 -6 -6 -7 -7 -6 -7 -7 -7 -8 -9 -8 -9 -8 -8 -8
-1 -1 -1 -1 -1 -1 -1 -1 -2 -2 -3 -3 -3 -3 -3 -3 -3 -3 -3 -3 -4 -4 -5 -4 -5 -5 -5 -5 -5 -5 -5 -6 -5 -6 -5 -6 -7 -6 -6 -8 -9 -9 -9 -9 -9
-1 -1 -1 -1 -1 -1 -1 -2 -2 -2 -3 -3 -3 -3 -3 -3 -3 -3 -3 -4 -4 -4 -4 -4 -4 -4 -4 -4 -4 -4 -5 -5 -5 -5 -5 -5 -5 -7 -7 -7 -8 -9 -8 -8 -8
-1 -1 -1 -1 -1 -1 -2 -2 -2 -3 -3 -3 -3 -3 -3 -3 -3 -3 -3 -4 -4 -4 -4 -4 -4 -5 -4 -4 -4 -4 -4 -5 -6 -6 -5 -5 -6 -6 -6 -7 -8 -7 -8 -8 -8
-1 -1 -1 -1 -1 -2 -2 -3 -3 -3 -3 -3 -3 -3 -3 -3 -3 -3 -3 -3 -4 -4 -4 -4 -4 -4 -5 -5 -5 -5 -5 -5 -5 -6 -5 -5 -6 -7 -7 -8 -8 -8 -7 -8 -8
-1 -1 -1 -1 -2 -2 -3 -3 -3 -3 -3 -3 -3 -3 -3 -3 -3 -3 -4 -4 -4 -4 -4 -4 -4 -4 -4 -5 -5 -5 -5 -5 -5 -5 -5 -4 -5 -7 -8 -8 -6 -7 -8 -8 -8
-1 -1 -1 -1 -2 -3 -3 -3 -3 -3 -3 -3 -3 -3 -3 -4 -4 -4 -4 -4 -4 -4 -4 -4 -4 -4 -4 -5 -4 -4 -5 -5 -5 -5 -5 -5 -5 -6 -7 -8 -7 -7 -8 -8 -8
-1 -2 -2 -2 -2 -3 -3 -3 -3 -3 -3 -3 -3 -3 -3 -3 -4 -4 -4 -4 -4 -4 -4 -4 -4 -4 -4 -5 -5 -5 -5 -5 -6 -6 -5 -5 -6 -7 -7 -7 -7 -8 -7 -8 -8
-2 -2 -2 -2 -3 -3 -3 -3 -3 -3 -3 -3 -3 -3 -4 -4 -4 -4 -4 -4 -4 -4 -4 -4 -4 -4 -4 -5 -5 -5 -5 -5 -6 -7 -6 -6 -6 -6 -7 -6 -8 -7 -8 -8 -8
-2 -2 -2 -3 -3 -3 -3 -3 -3 -3 -3 -3 -3 -3 -4 -4 -4 -4 -4 -4 -4 -4 -4 -5 -5 -5 -5 -5 -5 -5 -5 -5 -6 -6 -6 -6 -6 -6 -6 -8 -8 -8 -8 -8 -8
-2 -2 -3 -3 -4 -4 -4 -4 -3 -4 -4 -4 -4 -4 -4 -4 -4 -4 -5 -4 -5 -5 -5 -5 -5 -5 -5 -5 -5 -5 -5 -5 -5 -6 -6 -6 -6 -6 -7 -7 -8 -8 -8 -8 -8
-3 -3 -3 -4 -4 -4 -4 -4 -4 -4 -4 -4 -4 -4 -4 -4 -5 -5 -5 -5 -5 -5 -5 -5 -5 -5 -5 -5 -5 -5 -5 -5 -5 -6 -6 -6 -7 -7 -6 -6 -6 -7 -8 -8 -8
-4 -4 -4 -4 -4 -4 -4 -4 -4 -4 -4 -4 -4 -4 -4 -5 -5 -5 -5 -5 -5 -5 -5 -5 -5 -5 -5 -5 -5 -5 -5 -5 -6 -6 -7 -6 -7 -7 -7 -8 -7 -7 -7 -8 -8
-5 -5 -5 -4 -4 -4 -4 -4 -4 -4 -5 -4 -4 -5 -5 -5 -5 -5 -5 -5 -5 -5 -5 -5 -5 -5 -5 -5 -6 -6 -6 -6 -6 -6 -6 -6 -6 -6 -7 -8 -8 -8 -8 -7 -8
-5 -5 -5 -4 -4 -4 -5 -5 -5 -5 -5 -4 -5 -5 -6 -6 -6 -6 -6 -6 -6 -5 -6 -5 -5 -6 -6 -6 -6 -6 -6 -6 -6 -6 -6 -7 -7 -6 -7 -8 -8 -9 -9 -9 -8
-6 -6 -5 -5 -5 -5 -5 -5 -5 -5 -5 -5 -5 -6 -6 -6 -6 -6 -6 -6 -6 -6 -6 -6 -6 -6 -6 -7 -6 -6 -6 -7 -7 -7 -7 -7 -7 -8 -8 -8 -9 -9 -10 -9 -9
-6 -6 -6 -6 -6 -6 -6 -6 -6 -6 -5 -5 -5 -6 -6 -6 -6 -6 -6 -6 -6 -6 -6 -7 -7 -6 -6 -6 -7 -7 -7 -7 -7 -7 -7 -7 -7 -9 -9 -9 -10 -11 -11 -10 -10
-6 -6 -6 -6 -6 -6 -6 -6 -6 -6 -6 -6 -6 -6 -6 -6 -6 -6 -6 -6 -5 -6 -6 -6 -7 -7 -7 -7 -6 -7 -8 -8 -7 -7 -7 -8 -8 -9 -9 -10 -10 -11 -12 -11 -10
-6 -6 -6 -6 -6 -6 -6 -6 -6 -6 -6 -6 -6 -7 -6 -6 -6 -6 -6 -6 -6 -6 -6 -6 -6 -7 -8 -8 -8 -7 -8 -8 -8 -8 -8 -8 -8 -10 -10 -10 -11 -11 -12 -11 -11
-7 -6 -6 -6 -6 -6 -6 -6 -6 -6 -6 -6 -6 -6 -6 -7 -6 -6 -6 -6 -6 -6 -6 -6 -6 -8 -8 -9 -9 -8 -8 -9 -9 -9 -9 -9 -9 -10 -10 -11 -12 -12 -12 -12 -12
-7 -7 -6 -6 -6 -6 -6 -6 -6 -6 -6 -6 -7 -7 -7 -7 -7 -7 -7 -7 -7 -6 -6 -6 -7 -8 -9 -9 -9 -10 -9 -9 -9 -9 -10 -9 -9 -9 -10 -10 -11 -12 -12 -12 -12
-7 -7 -7 -7 -7 -7 -7 -6 -6 -6 -6 -7 -7 -7 -7 -7 -7 -8 -7 -7 -7 -7 -6 -7 -8 -8 -9 -10 -10 -9 -10 -10 -10 -10 -10 -10 -9 -10 -10 -10 -11 -11 -12 -11 -11
-8 -7 -7 -7 -7 -8 -8 -8 -8 -7 -7 -7 -7 -7 -7 -7 -7 -7 -8 -7 -7 -8 -8 -8 -8 -7 -9 -10 -10 -10 -10 -10 -10 -10 -10 -10 -10 -10 -10 -10 -11 -11 -11 -11 -11
-8 -8 -8 -8 -8 -8 -8 -8 -8 -8 -7 -7 -7 -7 -7 -7 -7 -7 -8 -8 -8 -9 -9 -8 -8 -8 -8 -8 -10 -11 -11 -11 -11 -11 -10 -10 -10 -11 -11 -11 -11 -12 -12 -12 -11
-9 -9 -8 -8 -8 -8 -8 -8 -8 -8 -7 -7 -7 -7 -7 -7 -7 -7 -7 -8 -9 -9 -9 -9 -8 -8 -9 -9 -10 -10 -10 -11 -11 -11 -11 -11 -11 -11 -11 -11 -11 -11 -12 -12 -11
-9 -9 -9 -9 -8 -8 -8 -8 -8 -8 -8 -8 -8 -7 -7 -7 -7 -8 -8 -8 -9 -9 -10 -10 -9 -9 -9 -10 -11 -10 -11 -12 -11 -11 -11 -11 -11 -12 -12 -11 -12 -11 -11 -11 -11
-10 -10 -10 -9 -9 -9 -9 -9 -9 -9 -9 -9 -8 -8 -8 -9 -8 -8 -8 -8 -9 -10 -11 -10 -10 -10 -8 -11 -11 -11 -12 -12 -12 -12 -12 -12 -12 -12 -12 -12 -12 -12 -11 -11 -10
Height
5922 5922 5921 5920 5919 5918 5917 5916 5914 5912 5911 5909 5909 5907 5905 5904 5903 5902 5902 5901 5899 5898 5899 5898 5899 5899 5897 5896 5896 5897 5898 5897 5898 5896 5896 5896 5892 5889 5889 5890 5890 5891 5891 5891 5889
5921 5921 5920 5919 5918 5917 5915 5914 5913 5912 5911 5910 5909 5907 5905 5904 5904 5903 5902 5900 5898 5897 5898 5897 5898 5897 5896 5895 5894 5895 5896 5893 5893 5894 5894 5896 5893 5890 5890 5889 5890 5890 5890 5891 5890
5920 5920 5919 5918 5917 5916 5914 5913 5913 5912 5911 5910 5909 5907 5906 5904 5904 5903 5902 5901 5900 5898 5897 5897 5897 5897 5896 5896 5896 5894 5894 5892 5892 5892 5892 5893 5892 5890 5889 5887 5886 5888 5889 5889 5890
5919 5919 5918 5917 5916 5915 5914 5913 5912 5912 5911 5910 5909 5907 5906 5905 5905 5903 5903 5902 5901 5899 5898 5897 5896 5896 5895 5895 5895 5894 5892 5891 5891 5889 5888 5887 5887 5887 5887 5887 5885 5886 5888 5888 5887
5918 5917 5917 5915 5914 5913 5913 5912 5912 5912 5911 5910 5909 5907 5906 5905 5904 5903 5902 5902 5901 5900 5899 5897 5897 5896 5895 5893 5893 5893 5892 5891 5888 5887 5885 5884 5883 5884 5886 5885 5885 5885 5885 5885 5885
5916 5916 5915 5914 5913 5912 5912 5911 5911 5911 5911 5910 5909 5908 5906 5906 5904 5903 5902 5901 5901 5900 5899 5897 5896 5895 5895 5894 5893 5891 5891 5890 5887 5885 5885 5884 5882 5882 5884 5882 5880 5882 5880 5882 5882
5914 5913 5912 5912 5911 5911 5911 5910 5910 5910 5910 5909 5908 5908 5906 5905 5903 5902 5901 5900 5899 5899 5898 5897 5896 5895 5894 5892 5892 5891 5890 5887 5885 5883 5883 5883 5880 5880 5879 5879 5877 5877 5878 5878 5878
5911 5911 5910 5909 5909 5909 5909 5909 5909 5909 5908 5907 5906 5906 5906 5904 5902 5901 5900 5899 5898 5897 5896 5895 5894 5893 5892 5891 5890 5888 5888 5885 5882 5880 5877 5882 5881 5878 5876 5875 5874 5873 5873 5874 5875
5908 5907 5907 5906 5906 5907 5907 5907 5907 5907 5905 5904 5904 5904 5903 5903 5902 5900 5898 5896 5895 5894 5893 5892 5890 5890 5890 5888 5889 5887 5885 5883 5880 5878 5876 5876 5880 5880 5875 5872 5869 5868 5868 5869 5870
5904 5904 5904 5904 5904 5904 5904 5905 5904 5904 5903 5902 5901 5902 5900 5899 5898 5898 5896 5894 5892 5891 5891 5888 5886 5885 5886 5885 5884 5882 5882 5882 5881 5877 5877 5876 5875 5873 5871 5868 5862 5860 5862 5863 5865
5901 5901 5901 5901 5900 5901 5902 5902 5903 5902 5900 5899 5898 5898 5896 5896 5894 5894 5893 5892 5890 5889 5889 5887 5885 5883 5882 5882 5881 5879 5879 5878 5877 5873 5873 5869 5870 5868 5861 5857 5858 5854 5855 5857 5858
5896 5896 5897 5897 5897 5897 5898 5898 5897 5897 5896 5894 5894 5893 5892 5891 5889 5888 5888 5888 5887 5885 5885 5885 5880 5881 5880 5877 5877 5874 5871 5870 5869 5864 5861 5859 5861 5859 5854 5852 5851 5848 5849 5850 5853
5892 5891 5892 5893 5894 5894 5894 5894 5893 5892 5891 5890 5889 5887 5887 5886 5884 5883 5884 5883 5882 5880 5881 5879 5877 5877 5877 5873 5875 5870 5865 5863 5860 5860 5857 5855 5856 5851 5848 5849 5848 5846 5844 5844 5846
5887 5888 5887 5889 5891 5889 5889 5889 5887 5887 5886 5885 5883 5881 5880 5879 5880 5879 5879 5879 5878 5878 5878 5876 5873 5874 5871 5869 5867 5865 5860 5858 5857 5856 5854 5850 5846 5847 5845 5844 5842 5842 5840 5838 5839
5883 5883 5884 5883 5884 5884 5884 5882 5881 5881 5880 5881 5877 5877 5876 5875 5876 5876 5874 5872 5872 5873 5874 5871 5869 5868 5866 5864 5862 5859 5856 5853 5851 5849 5846 5845 5841 5838 5836 5834 5833 5832 5831 5831 5830
5878 5878 5878 5878 5878 5878 5877 5875 5874 5875 5873 5874 5873 5871 5869 5869 5870 5870 5870 5868 5865 5867 5868 5865 5863 5863 5862 5859 5856 5852 5850 5848 5845 5843 5842 5839 5836 5832 5829 5827 5825 5823 5823 5824 5823
5872 5872 5871 5872 5872 5871 5870 5869 5868 5867 5869 5870 5868 5866 5862 5863 5864 5865 5865 5862 5860 5863 5862 5860 5859 5856 5855 5853 5850 5846 5843 5840 5839 5839 5838 5834 5829 5826 5821 5817 5815 5814 5813 5813 5814
5865 5866 5865 5866 5866 5865 5864 5864 5861 5862 5862 5864 5864 5860 5860 5860 5859 5859 5860 5858 5855 5856 5857 5858 5858 5853 5851 5847 5844 5842 5840 5835 5830 5829 5829 5828 5823 5819 5815 5810 5808 5807 5807 5808 5805
5858 5858 5858 5859 5859 5859 5858 5856 5856 5857 5856 5857 5857 5856 5855 5855 5854 5854 5852 5852 5851 5850 5850 5849 5850 5850 5846 5842 5839 5838 5834 5831 5826 5824 5820 5820 5819 5814 5810 5806 5801 5800 5797 5799 5796
5849 5849 5849 5851 5851 5851 5851 5848 5849 5851 5850 5851 5850 5849 5849 5846 5847 5848 5846 5846 5846 5845 5844 5843 5842 5843 5841 5836 5832 5829 5828 5825 5820 5816 5811 5810 5810 5806 5803 5800 5796 5793 5789 5788 5786
5841 5840 5841 5841 5843 5843 5842 5842 5842 5843 5845 5845 5844 5842 5842 5842 5841 5840 5840 5839 5837 5836 5836 5836 5836 5836 5834 5828 5825 5822 5819 5816 5814 5810 5804 5799 5799 5799 5797 5794 5791 5788 5785 5784 5781
5832 5832 5833 5833 5835 5834 5835 5836 5836 5835 5837 5837 5836 5835 5835 5834 5835 5834 5832 5832 5831 5829 5828 5829 5827 5825 5825 5822 5817 5814 5813 5809 5804 5804 5801 5795 5793 5789 5787 5784 5782 5778 5774 5773 5777
5823 5823 5826 5826 5827 5828 5828 5828 5827 5827 5828 5829 5829 5829 5828 5828 5828 5827 5826 5825 5824 5824 5823 5820 5819 5817 5818 5815 5812 5808 5806 5801 5797 5795 5793 5787 5785 5780 5778 5775 5773 5770 5766 5764 5766
5814 5814 5816 5818 5819 5819 5819 5820 5819 5819 5819 5820 5821 5821 5822 5823 5822 5821 5820 5819 5818 5817 5816 5813 5811 5808 5807 5805 5801 5803 5801 5797 5793 5789 5786 5784 5779 5775 5773 5769 5764 5761 5757 5755 5755
5803 5804 5805 5808 5809 5810 5810 5811 5811 5812 5814 5814 5814 5815 5815 5815 5815 5814 5812 5810 5810 5808 5807 5805 5803 5800 5798 5796 5793 5791 5788 5789 5787 5785 5779 5777 5772 5767 5764 5761 5757 5753 5749 5745 5743
5792 5794 5795 5796 5798 5800 5801 5802 5803 5804 5805 5803 5805 5805 5806 5807 5808 5806 5804 5802 5800 5799 5797 5795 5793 5790 5790 5787 5785 5781 5783 5779 5777 5774 5771 5766 5763 5757 5754 5752 5750 5745 5741 5738 5736
5778 5781 5783 5785 5787 5789 5789 5792 5793 5795 5794 5794 5795 5795 5796 5796 5795 5794 5793 5793 5793 5790 5788 5785 5782 5780 5778 5779 5774 5775 5774 5772 5769 5767 5764 5761 5756 5751 5747 5743 5741 5738 5734 5732 5730
Wind_Speed
2 2 3 5 7 9 11 12 13 11 10 8 9 9 7 5 4 5 6 8 11 12 10 11 9 8 11 11 11 6 5 9 11 19 9 9 4 3 4 11 14 15 17 22 26
2 4 6 8 9 11 12 12 10 8 8 8 9 8 7 6 7 7 8 9 6 5 7 9 8 10 11 13 16 11 6 14 15 18 19 15 13 9 8 9 7 14 15 17 23
5 6 7 9 10 12 11 9 7 7 8 9 9 8 8 8 7 6 6 6 7 7 7 8 8 6 8 9 11 13 10 16 18 18 20 18 10 13 13 13 11 15 19 23 28
7 7 8 10 12 10 8 6 6 6 8 9 8 7 7 8 9 9 5 5 5 6 6 7 8 8 10 12 11 12 13 14 11 12 11 10 7 4 11 10 15 20 19 15 13
8 9 10 11 11 7 5 4 5 6 5 6 8 7 8 8 9 9 8 7 6 5 5 7 8 8 9 11 14 12 10 8 7 9 13 11 8 7 7 8 17 12 8 15 11
10 10 12 12 9 6 5 4 4 4 4 5 6 7 8 10 9 8 6 6 7 7 7 7 8 8 8 10 10 11 9 9 12 14 14 13 7 4 8 12 12 11 13 14 15
11 11 13 12 9 7 5 5 5 6 7 6 6 6 8 10 11 12 9 7 8 7 8 9 9 9 9 9 8 8 9 11 13 15 15 15 10 13 13 14 13 11 13 16 16
12 13 13 12 9 8 7 7 7 9 9 8 8 7 6 11 11 10 11 11 10 10 10 11 10 12 11 10 10 10 9 12 13 13 18 9 13 14 15 16 15 16 13 15 16
15 14 14 12 11 12 11 10 11 11 12 10 10 11 11 11 11 13 13 14 13 13 12 13 14 16 14 14 12 10 11 10 11 16 18 20 9 15 23 24 18 20 19 16 14
16 16 15 14 14 14 14 14 15 14 13 12 11 12 15 15 16 15 14 14 14 14 13 15 18 18 17 16 16 17 12 10 11 20 17 17 13 10 16 23 24 27 26 24 21
19 18 16 15 16 16 16 15 16 17 15 14 14 14 16 18 19 17 15 14 13 13 13 16 18 19 19 18 18 18 18 17 18 21 18 19 15 10 19 22 28 32 33 33 32
20 19 18 18 19 19 18 17 16 17 16 16 18 20 22 23 20 17 16 16 15 16 15 15 20 18 18 22 19 25 26 26 26 27 28 26 21 12 18 22 22 32 37 37 37
21 21 20 20 21 21 20 20 20 20 20 21 23 26 26 20 17 17 17 16 15 17 14 17 20 20 19 22 20 22 28 28 30 27 26 27 22 22 24 16 19 25 36 43 40
21 21 23 22 22 22 23 23 24 22 23 26 29 29 19 15 13 17 18 18 18 17 16 18 21 18 20 22 22 21 25 26 28 28 25 28 30 27 19 21 22 21 29 36 50
22 23 24 25 25 24 26 26 27 27 29 29 28 21 18 17 17 17 19 21 21 18 17 20 21 19 20 22 22 24 25 28 31 29 31 29 32 31 28 25 25 23 22 26 38
26 26 27 28 28 28 29 29 30 28 26 22 20 18 23 22 20 20 20 22 24 21 20 19 20 18 19 23 25 28 29 30 32 31 32 32 31 29 27 28 26 25 26 24 28
27 27 28 26 26 24 23 23 25 24 22 17 16 18 24 22 22 21 21 25 28 22 18 15 19 24 24 25 25 29 32 35 33 32 32 29 32 30 29 29 28 26 24 25 31
27 27 26 25 25 25 25 25 28 26 24 20 17 21 24 21 22 21 19 21 24 21 19 15 16 21 25 29 32 29 30 33 38 38 36 31 31 32 30 31 31 29 29 27 28
32 30 30 28 28 28 28 30 30 27 26 23 23 23 25 24 25 21 22 22 24 24 25 26 22 18 20 25 30 28 31 32 37 37 38 32 29 29 28 30 30 29 34 32 38
34 34 33 31 30 30 30 33 31 30 29 28 28 28 26 28 27 25 26 27 27 27 28 28 27 22 21 22 29 31 33 32 35 36 38 38 32 32 31 28 25 22 22 26 33
35 35 34 33 31 30 31 31 31 30 27 26 27 29 28 26 28 28 28 28 29 31 29 29 28 27 22 26 29 29 30 33 34 35 39 43 42 37 35 32 27 26 26 22 20
34 33 31 31 30 29 29 28 29 28 25 25 27 29 29 30 29 29 31 31 31 33 32 31 31 31 27 24 30 32 30 33 36 35 35 41 45 42 40 37 28 24 24 29 22
33 34 32 31 30 29 27 28 27 27 26 25 28 28 30 29 29 29 30 33 32 32 33 33 32 33 30 29 27 31 31 35 38 37 39 43 44 45 41 40 35 27 27 24 21
36 37 35 33 32 32 31 31 32 32 33 31 30 30 29 28 29 29 29 30 31 31 32 35 37 38 38 37 36 27 28 31 35 37 39 40 41 40 38 31 30 31 30 30 24
38 37 37 35 34 33 34 34 34 34 33 32 32 31 30 30 29 29 31 31 30 32 33 36 39 40 39 39 37 38 40 34 32 33 40 37 36 36 32 27 28 34 33 30 27
41 39 39 39 37 36 35 35 34 35 35 36 35 35 33 31 29 32 34 36 37 35 35 37 40 40 41 39 36 41 33 35 34 38 38 38 37 35 34 29 30 30 30 28 25
45 43 42 42 40 39 39 38 37 37 38 38 38 37 36 33 34 35 36 37 37 38 32 38 41 43 45 37 40 41 33 35 36 37 35 33 29 31 35 33 32 30 31 30 29
Wind_Direction
103 29 353 341 339 332 331 331 332 335 344 9 25 22 22 14 340 333 337 290 281 278 282 286 295 304 299 306 305 315 285 242 217 207 237 220 185 321 339 333 336 354 336 344 331
0 337 329 328 327 326 327 332 345 11 18 8 11 9 3 13 41 45 28 16 6 325 302 308 315 304 301 309 311 311 287 265 276 248 261 255 243 247 274 278 328 326 325 324 317
308 307 310 316 317 320 325 337 355 8 10 10 16 11 0 353 4 27 15 25 38 32 24 22 32 356 349 342 360 10 314 296 303 308 312 301 256 256 285 291 288 297 299 301 312
302 308 310 312 317 317 324 332 352 12 8 6 357 359 358 10 353 7 16 10 12 9 10 11 10 0 346 341 4 12 2 354 341 325 317 320 313 262 303 275 281 286 313 325 345
303 305 303 311 312 311 311 323 341 1 3 5 15 13 4 3 356 353 360 10 19 13 1 344 358 4 347 338 345 357 356 347 314 296 313 324 339 12 50 238 254 274 338 6 339
294 293 299 307 303 290 286 304 324 322 313 337 355 2 3 344 345 350 341 336 343 345 345 337 353 344 335 328 335 322 324 306 300 294 300 303 302 149 169 228 283 324 348 340 334
293 293 298 300 285 261 268 284 293 291 285 299 316 339 344 331 331 324 322 325 316 315 323 323 328 324 317 313 310 309 308 297 292 296 304 321 282 262 239 244 285 308 320 324 328
290 295 296 291 270 260 267 272 280 291 288 284 286 301 317 321 326 324 312 306 297 300 304 311 311 305 312 310 316 311 304 297 286 291 294 310 294 265 244 254 264 267 275 293 312
290 296 292 281 266 263 260 269 281 291 295 285 278 289 293 299 305 310 312 298 292 291 295 304 302 305 311 311 313 312 302 292 282 277 286 301 311 281 258 272 266 273 268 274 286
288 287 281 269 261 260 261 271 282 289 293 294 286 284 289 296 297 299 301 299 288 287 296 300 303 306 305 307 315 318 314 310 283 280 288 281 296 298 276 258 251 252 261 263 265
282 280 272 263 263 259 264 273 284 289 287 286 284 284 286 290 289 287 286 285 278 276 281 286 290 294 300 307 314 312 313 316 316 304 304 308 329 279 257 255 243 254 258 261 267
274 271 265 260 262 266 270 276 282 286 286 281 282 287 292 293 283 278 278 278 282 281 279 279 280 287 297 301 310 315 318 321 326 332 332 328 333 307 273 274 273 251 251 256 259
267 267 263 261 263 269 273 276 282 284 284 284 286 291 298 289 277 273 271 276 281 286 289 279 284 295 301 301 316 316 318 327 329 329 324 320 323 305 303 293 281 269 256 251 253
268 266 266 263 266 270 274 276 278 278 280 285 289 298 293 280 265 261 267 270 270 275 278 278 282 293 300 304 312 321 320 320 314 313 319 327 321 321 300 288 290 272 263 266 254
268 266 265 267 269 273 275 277 277 279 283 286 290 291 281 266 262 261 263 271 272 282 297 292 294 303 302 306 307 312 309 309 309 319 328 329 317 316 314 311 302 284 268 258 254
271 271 269 270 274 276 278 279 280 281 285 288 292 282 270 265 262 260 263 267 276 286 294 292 296 297 298 295 302 305 305 306 314 322 324 319 317 318 310 306 303 293 282 257 252
273 273 273 275 277 278 277 278 280 281 287 289 284 265 261 269 270 264 267 270 275 283 293 293 296 299 300 299 306 305 309 310 310 313 316 317 317 316 316 309 304 294 283 278 255
274 274 273 274 275 275 274 275 275 282 282 284 280 267 268 275 274 280 278 279 287 293 292 284 279 286 297 299 303 303 304 305 308 312 316 320 318 319 313 307 298 288 281 282 277
272 271 272 272 271 271 271 273 274 275 279 279 274 271 274 276 278 285 285 287 288 294 295 297 296 296 295 293 297 300 297 301 301 308 310 313 317 314 309 304 302 296 288 282 270
271 271 270 270 270 270 269 269 272 273 275 275 272 273 271 276 281 284 284 288 290 290 291 295 297 306 307 296 293 295 298 299 304 308 308 310 315 312 316 311 303 299 299 289 266
269 269 270 268 268 265 264 267 270 270 269 269 271 272 274 274 277 282 282 284 286 287 292 295 303 309 310 301 294 295 298 300 302 305 307 312 313 315 315 315 308 292 284 292 276
266 265 266 266 266 265 267 270 268 269 271 269 265 267 269 273 272 275 280 283 286 289 294 301 301 299 301 294 296 297 298 298 301 302 303 304 310 314 317 314 311 309 280 278 279
260 262 261 260 263 266 265 264 264 264 261 258 259 260 265 267 272 274 274 281 286 289 294 294 292 291 287 291 293 295 297 297 296 301 306 305 311 309 310 311 307 304 295 292 287
260 261 260 260 259 258 258 257 258 258 260 263 265 268 272 275 276 278 278 279 283 286 285 287 288 287 290 294 295 281 276 278 287 295 300 301 301 302 305 304 306 308 301 296 292
260 260 261 259 255 254 254 254 256 259 261 263 265 266 270 273 276 279 279 279 276 277 278 281 284 287 290 290 290 291 292 295 290 293 297 298 298 297 302 302 307 311 306 293 279
258 259 258 258 257 255 254 256 256 259 262 265 263 264 265 266 271 272 275 279 280 283 286 285 284 283 282 285 289 288 298 294 296 299 302 302 306 304 304 303 308 310 300 299 286
257 255 255 256 258 257 256 255 254 255 259 260 264 269 273 276 273 272 273 276 277 283 285 282 283 284 285 292 290 293 295 295 291 296 301 304 303 300 302 296 303 302 295 292 284